Location: Quedlinburg
(51.7921°N, 11.1414°E)
Time: 08:51:58
(UTC+02:00)

RS-44 - Pass Details

Date: 22 March 2026
Orbit: 1175 x 1510 km, 82.5° (Epoch: 17 April)

Event Time Altitude Azimuth Distance (km) Brightness Sun altitude
Rises 23:44:02 0° 349° (NNW) 4,433 ? -36.7°
Reaches altitude 10° 23:47:35 10° 3° (N) 3,508 ? -36.8°
Maximum altitude 23:54:10 24° 54° (NE) 2,651 ? -36.9°
Enters shadow 23:57:42 19° 86° (E) 2,970 ? -37.0°
